When you browse on this site, cookies collect data to enhance your experience and personalize the content and advertising you see.
Visit our Privacy Policy to learn more. By continuing to use the site, you agree to this use of cookies and data.
  • In Schweiz
  • Länderverzeichnis
  • Für 7 Tage
  • Wassertemperatur
  • Satellitenkarten
  • Wetterkarte
  • Widgets
  • user-avatar
    Anmelden

    Stündliche Wetter Constantine

    Heute, 17 Juni, Montag

    Zeit Temperatur Niederschläge Wind Luftdruck Luftfeuchtigkeit
    00:00 +21°C° 0.1 mm 1 m/S 709 mmHg 73%
    01:00 +20°C° 0 mm 1 m/S 709 mmHg 75%
    02:00 +19°C° 0 mm 2 m/S 709 mmHg 77%
    03:00 +19°C° 0 mm 2 m/S 709 mmHg 79%
    04:00 +19°C° 0.1 mm 2 m/S 709 mmHg 75%
    05:00 +20°C° 0.1 mm 1 m/S 709 mmHg 72%
    06:00 +20°C° 0.1 mm 1 m/S 710 mmHg 69%
    07:00 +21°C° 0.4 mm 2 m/S 710 mmHg 63%
    08:00 +24°C° 0.4 mm 2 m/S 710 mmHg 56%
    09:00 +25°C° 0.4 mm 3 m/S 711 mmHg 49%
    10:00 +26°C° 0.3 mm 3 m/S 711 mmHg 47%
    11:00 +27°C° 0.3 mm 3 m/S 710 mmHg 44%
    12:00 +28°C° 0.3 mm 4 m/S 710 mmHg 42%
    13:00 +28°C° 0 mm 4 m/S 710 mmHg 43%
    14:00 +28°C° 0 mm 5 m/S 710 mmHg 44%
    15:00 +28°C° 0 mm 6 m/S 709 mmHg 45%
    16:00 +27°C° 0.1 mm 5 m/S 710 mmHg 47%
    17:00 +25°C° 0.1 mm 4 m/S 710 mmHg 48%
    18:00 +24°C° 0.1 mm 3 m/S 710 mmHg 50%
    19:00 +23°C° 0.1 mm 2 m/S 710 mmHg 53%
    20:00 +20°C° 0.1 mm 2 m/S 710 mmHg 56%
    21:00 +20°C° 0.1 mm 1 m/S 710 mmHg 60%
    22:00 +18°C° 0 mm 0 m/S 710 mmHg 61%
    23:00 +18°C° 0 mm 0 m/S 710 mmHg 62%

    Morgen, 18 Juni, Dienstag

    Zeit Temperatur Niederschläge Wind Luftdruck Luftfeuchtigkeit
    00:00 +18°C° 0 mm 0 m/S 710 mmHg 63%
    01:00 +18°C° 0 mm 0 m/S 710 mmHg 62%
    02:00 +18°C° 0 mm 0 m/S 710 mmHg 61%
    03:00 +18°C° 0 mm 0 m/S 709 mmHg 60%
    04:00 +19°C° 0 mm 0 m/S 710 mmHg 58%
    05:00 +19°C° 0 mm 0 m/S 710 mmHg 56%
    06:00 +20°C° 0 mm 0 m/S 710 mmHg 54%
    07:00 +22°C° 0 mm 0 m/S 711 mmHg 48%
    08:00 +26°C° 0 mm 1 m/S 711 mmHg 43%
    09:00 +28°C° 0 mm 1 m/S 711 mmHg 38%
    10:00 +30°C° 0 mm 1 m/S 711 mmHg 35%
    11:00 +31°C° 0 mm 2 m/S 711 mmHg 32%
    12:00 +32°C° 0 mm 2 m/S 711 mmHg 29%
    13:00 +34°C° 0 mm 3 m/S 711 mmHg 29%
    14:00 +34°C° 0 mm 4 m/S 711 mmHg 29%
    15:00 +34°C° 0 mm 5 m/S 710 mmHg 29%
    16:00 +32°C° 0 mm 4 m/S 710 mmHg 34%
    17:00 +30°C° 0 mm 4 m/S 710 mmHg 39%
    18:00 +28°C° 0 mm 3 m/S 710 mmHg 44%
    19:00 +27°C° 0 mm 2 m/S 710 mmHg 48%
    20:00 +25°C° 0 mm 1 m/S 710 mmHg 51%
    21:00 +24°C° 0 mm 1 m/S 710 mmHg 55%
    22:00 +24°C° 0 mm 1 m/S 710 mmHg 55%
    23:00 +22°C° 0 mm 0 m/S 710 mmHg 55%

    übermorgen, 19 Juni, Mittwoch

    Zeit Temperatur Niederschläge Wind Luftdruck Luftfeuchtigkeit
    00:00 +22°C° 0 mm 0 m/S 710 mmHg 55%
    01:00 +23°C° 0 mm 1 m/S 710 mmHg 54%
    02:00 +23°C° 0 mm 1 m/S 709 mmHg 53%
    03:00 +23°C° 0 mm 1 m/S 709 mmHg 53%
    04:00 +25°C° 0 mm 1 m/S 709 mmHg 49%
    05:00 +26°C° 0 mm 1 m/S 710 mmHg 46%
    06:00 +27°C° 0 mm 1 m/S 710 mmHg 43%
    07:00 +30°C° 0 mm 3 m/S 711 mmHg 36%
    08:00 +33°C° 0 mm 4 m/S 711 mmHg 30%
    09:00 +35°C° 0 mm 5 m/S 712 mmHg 23%
    10:00 +36°C° 0 mm 5 m/S 712 mmHg 22%
    11:00 +37°C° 0 mm 4 m/S 712 mmHg 20%
    12:00 +38°C° 0 mm 4 m/S 712 mmHg 19%
    13:00 +38°C° 0 mm 4 m/S 711 mmHg 20%
    14:00 +38°C° 0 mm 4 m/S 711 mmHg 22%
    15:00 +38°C° 0 mm 4 m/S 711 mmHg 23%
    16:00 +36°C° 0 mm 4 m/S 710 mmHg 28%
    17:00 +34°C° 0 mm 3 m/S 710 mmHg 34%
    18:00 +31°C° 0 mm 3 m/S 710 mmHg 39%
    19:00 +29°C° 0 mm 2 m/S 710 mmHg 42%
    20:00 +28°C° 0 mm 1 m/S 710 mmHg 46%
    21:00 +24°C° 0 mm 0 m/S 710 mmHg 49%
    22:00 +26°C° 0 mm 1 m/S 710 mmHg 49%
    23:00 +26°C° 0 mm 1 m/S 709 mmHg 49%

    20 Juni, Donnerstag

    Zeit Temperatur Niederschläge Wind Luftdruck Luftfeuchtigkeit
    00:00 +26°C° 0 mm 1 m/S 709 mmHg 48%
    01:00 +26°C° 0 mm 1 m/S 709 mmHg 48%
    02:00 +26°C° 0 mm 1 m/S 709 mmHg 48%
    03:00 +26°C° 0 mm 1 m/S 708 mmHg 47%
    04:00 +27°C° 0.1 mm 1 m/S 709 mmHg 45%
    05:00 +28°C° 0.1 mm 1 m/S 709 mmHg 43%
    06:00 +29°C° 0.1 mm 1 m/S 709 mmHg 40%
    07:00 +31°C° 0 mm 1 m/S 710 mmHg 34%
    08:00 +35°C° 0 mm 2 m/S 710 mmHg 27%
    09:00 +37°C° 0 mm 2 m/S 711 mmHg 21%
    10:00 +38°C° 0 mm 3 m/S 711 mmHg 19%
    11:00 +40°C° 0 mm 4 m/S 711 mmHg 17%
    12:00 +42°C° 0 mm 4 m/S 711 mmHg 15%
    13:00 +41°C° 0 mm 5 m/S 711 mmHg 17%
    14:00 +41°C° 0 mm 5 m/S 710 mmHg 19%
    15:00 +40°C° 0 mm 5 m/S 710 mmHg 20%
    16:00 +38°C° 0 mm 4 m/S 710 mmHg 25%
    17:00 +36°C° 0 mm 3 m/S 710 mmHg 29%
    18:00 +34°C° 0 mm 2 m/S 710 mmHg 34%
    19:00 +32°C° 0 mm 2 m/S 710 mmHg 37%
    20:00 +30°C° 0 mm 2 m/S 709 mmHg 40%
    21:00 +28°C° 0 mm 3 m/S 709 mmHg 44%
    22:00 +28°C° 0 mm 3 m/S 709 mmHg 42%
    23:00 +28°C° 0 mm 3 m/S 709 mmHg 40%

    21 Juni, Freitag

    Zeit Temperatur Niederschläge Wind Luftdruck Luftfeuchtigkeit
    00:00 +28°C° 0 mm 3 m/S 708 mmHg 39%
    01:00 +27°C° 0 mm 2 m/S 708 mmHg 41%
    02:00 +26°C° 0 mm 1 m/S 708 mmHg 43%
    03:00 +25°C° 0 mm 1 m/S 708 mmHg 45%
    04:00 +26°C° 0 mm 1 m/S 708 mmHg 43%
    05:00 +27°C° 0 mm 1 m/S 709 mmHg 42%
    06:00 +28°C° 0 mm 1 m/S 709 mmHg 41%
    07:00 +30°C° 0 mm 2 m/S 710 mmHg 35%
    08:00 +34°C° 0 mm 3 m/S 710 mmHg 30%
    09:00 +36°C° 0 mm 3 m/S 711 mmHg 25%
    10:00 +38°C° 0 mm 4 m/S 711 mmHg 21%
    11:00 +41°C° 0 mm 5 m/S 711 mmHg 18%
    12:00 +44°C° 0 mm 6 m/S 711 mmHg 15%
    13:00 +41°C° 0 mm 6 m/S 710 mmHg 18%
    14:00 +40°C° 0 mm 6 m/S 710 mmHg 21%
    15:00 +39°C° 0 mm 6 m/S 710 mmHg 24%
    16:00 +36°C° 0 mm 5 m/S 709 mmHg 32%
    17:00 +34°C° 0 mm 4 m/S 709 mmHg 39%
    18:00 +31°C° 0 mm 3 m/S 708 mmHg 47%
    19:00 +29°C° 0 mm 3 m/S 709 mmHg 52%
    20:00 +27°C° 0 mm 2 m/S 709 mmHg 58%
    21:00 +26°C° 0 mm 2 m/S 709 mmHg 64%
    22:00 +25°C° 0 mm 2 m/S 709 mmHg 63%
    23:00 +25°C° 0 mm 1 m/S 708 mmHg 61%

    22 Juni, Samstag

    Zeit Temperatur Niederschläge Wind Luftdruck Luftfeuchtigkeit
    00:00 +25°C° 0 mm 1 m/S 708 mmHg 59%
    01:00 +25°C° 0 mm 1 m/S 708 mmHg 55%
    02:00 +25°C° 0 mm 2 m/S 708 mmHg 51%
    03:00 +26°C° 0 mm 2 m/S 708 mmHg 47%
    04:00 +26°C° 0 mm 2 m/S 708 mmHg 46%
    05:00 +27°C° 0 mm 1 m/S 709 mmHg 45%
    06:00 +27°C° 0 mm 1 m/S 709 mmHg 43%
    07:00 +31°C° 0 mm 2 m/S 710 mmHg 35%
    08:00 +35°C° 0 mm 3 m/S 710 mmHg 27%
    09:00 +38°C° 0 mm 3 m/S 711 mmHg 19%
    10:00 +40°C° 0 mm 4 m/S 711 mmHg 17%
    11:00 +42°C° 0 mm 5 m/S 711 mmHg 15%
    12:00 +44°C° 0 mm 6 m/S 711 mmHg 14%
    13:00 +42°C° 0 mm 5 m/S 710 mmHg 15%
    14:00 +42°C° 0 mm 5 m/S 710 mmHg 17%
    15:00 +41°C° 0 mm 5 m/S 710 mmHg 19%
    16:00 +38°C° 0 mm 4 m/S 709 mmHg 24%
    17:00 +37°C° 0 mm 3 m/S 709 mmHg 28%
    18:00 +35°C° 0 mm 3 m/S 709 mmHg 33%
    19:00 +34°C° 0 mm 3 m/S 709 mmHg 32%
    20:00 +33°C° 0 mm 3 m/S 709 mmHg 31%
    21:00 +31°C° 0 mm 3 m/S 709 mmHg 30%
    22:00 +32°C° 0 mm 4 m/S 709 mmHg 26%
    23:00 +32°C° 0 mm 4 m/S 709 mmHg 21%
    Mehr zeigen